Location: Unspecified
(0.0000°N, 0.0000°E)
Time: 06:42:34
(UTC+00:00)

X-37B - Pass Details

Date: 22 July 2021
Orbit: 383 x 392 km, 45.0° (Epoch: 01 July)

Event Time Altitude Azimuth Distance (km) Brightness Sun altitude
Exits shadow 05:04:43 31° 245° (WSW) 700 1.3 -14.5°
Maximum altitude 05:05:58 59° 312° (NW) 449 0.7 -14.2°
Drops below altitude 10° 05:09:06 10° 33° (NNE) 1,407 4.2 -13.5°
Sets 05:11:11 0° 37° (NE) 2,260 5.5 -13.0°
